This demonstration page uses our WeatherBlox Daily Observations layout. Learn more.

Left ArrowRight Arrow

39.29038, -76.61219

Hourly Observations for August 15, 2015

Temp ( °F °C ) Dew Point ( °F °C ) Humidity (%) Winds ( mph kmh ) Pressure ( in mb ) Visibility ( mi km ) Precip ( " mm )
12:54 am 00:54 Mostly Cloudy 74 23.3 71 21.7 91 91 undefined N/A 30.04 1017 N/A 0.00 0.00
1:54 am 01:54 Cloudy 74 23.3 57 13.9 56 56 undefined N/A 30.14 1021 N/A 0.00 0.00
2:54 am 02:54 undefined 72 22.2 59 15 64 64 undefined N/A 30.13 1020 N/A 0.00 0.00
3:54 am 03:54 undefined 72 22.2 58 14.4 61 61 undefined N/A 30.13 1020 N/A 0.00 0.00
4:54 am 04:54 undefined 71 21.7 59 15 66 66 undefined N/A 30.13 1020 N/A 0.00 0.00
5:54 am 05:54 undefined 71 21.7 59 15 66 66 undefined N/A 30.14 1021 N/A 0.00 0.00
6:54 am 06:54 undefined 71 21.7 58 14.4 63 63 undefined N/A 30.16 1021 N/A 0.00 0.00
7:54 am 07:54 Cloudy 74 23.3 70 21.1 88 88 undefined N/A 30.07 1018 N/A 0.00 0.00
8:54 am 08:54 undefined 76 24.4 59 15 56 56 undefined N/A 30.16 1021 N/A 0.00 0.00
9:54 am 09:54 undefined 79 26.1 59 15 50 50 undefined N/A 30.15 1021 N/A 0.00 0.00
10:54 am 10:54 undefined 83 28.3 60 15.6 46 46 undefined N/A 30.16 1021 N/A 0.00 0.00
11:54 am 11:54 undefined 86 30 59 15 40 40 undefined N/A 30.16 1021 N/A 0.00 0.00
12:54 pm 12:54 undefined 87 30.6 58 14.4 37 37 undefined N/A 30.14 1021 N/A 0.00 0.00
1:54 pm 13:54 undefined 88 31.1 59 15 38 38 undefined N/A 30.13 1020 N/A 0.00 0.00
2:54 pm 14:54 undefined 88 31.1 60 15.6 39 39 undefined N/A 30.12 1020 N/A 0.00 0.00
3:54 pm 15:54 Sunny 94 34.6 59 15.2 31 31 undefined N/A 30.01 1016 N/A 0.00 0.00
4:54 pm 16:54 Partly Cloudy 85 29.4 75 23.8 72 72 undefined N/A 30.91 1047 N/A 0.00 0.00
5:54 pm 17:54 undefined 87 30.6 61 16.1 42 42 undefined N/A 30.09 1019 N/A 0.00 0.00
6:54 pm 18:54 undefined 85 29.4 62 16.7 46 46 undefined N/A 30.09 1019 N/A 0.00 0.00
7:54 pm 19:54 undefined 83 28.3 62 16.7 49 49 undefined N/A 30.09 1019 N/A 0.00 0.00
8:54 pm 20:54 undefined 81 27.2 62 16.7 53 53 undefined N/A 30.11 1020 N/A 0.00 0.00
9:54 pm 21:54 undefined 79 26.1 60 15.6 52 52 undefined N/A 30.13 1020 N/A 0.00 0.00
10:54 pm 22:54 undefined 78 25.6 58 14.4 50 50 undefined N/A 30.14 1021 N/A 0.00 0.00
11:54 pm 23:54 undefined 76 24.4 58 14.4 54 54 undefined N/A 30.15 1021 N/A 0.00 0.00

Powered by AerisWeather